Regional Weather Roundup
Issued by NWS

Home | Current Version | Previous Version | Graphics & Text | Print | Product List | Glossary On
Versions: 1 2 3 4 5 6 7 8 9 10 11 12 13 14 15 16 17 18 19 20 21 22 23 24 25 26 27 28 29 30 31 32 33 34 35 36 37 38 39 40 41 42 43 44 45 46 47 48 49 50
000
ASUS45 KCYS 271710
RWRWY

WYOMING REGIONAL WEATHER ROUNDUP
NATIONAL WEATHER SERVICE CHEYENNE WY
1100 AM MDT TUE SEP 27 2016

NOTE:  "FAIR" INDICATES FEW OR NO CLOUDS BELOW 12,000 FEET
WITH NO SIGNIFICANT WEATHER AND/OR OBSTRUCTIONS TO VISIBILITY.

WYZ001-271800-
YELLOWSTONE NATIONAL PARK

CITY           SKY/WX    TMP DP  RH WIND       PRES   REMARKS
LK YELLOWSTONE   N/A     47  43  86 E5        30.42S
W YELLOWSTONE  NOT AVBL

$$
WYZ002>013-054>058-071-098>099-271800-
NORTHERN WYOMING

CITY           SKY/WX    TMP DP  RH WIND       PRES   REMARKS
JACKSON        SUNNY     54  41  62 CALM      30.36F
CODY           FAIR      64  49  57 NE3       30.20F
GREYBULL       FAIR      58  48  69 CALM      30.17F
WORLAND        FAIR      62  48  60 NW3       30.18F
SHERIDAN       FAIR      77  47  34 CALM      30.11F
BUFFALO        FAIR      75  35  23 S5        30.18S
GILLETTE       FAIR      73  42  32 W9        30.13S
HULETT         FAIR      70  45  40 SW7       30.13F
NEWCASTLE      FAIR      61  43  51 CALM      30.15F

$$
WYZ014>020-022>026-101>103-271800-
CENTRAL WYOMING

CITY           SKY/WX    TMP DP  RH WIND       PRES   REMARKS
BIG PINEY      FAIR      58  40  51 CALM      30.37F
PINEDALE       FAIR      61  37  41 W3        30.37F
DUBOIS         FAIR      64  34  32 NW9G17    30.32F
LANDER         FAIR      65  41  41 E3        30.24F
RIVERTON       FAIR      57  47  69 NE5       30.26F
CASPER         FAIR      67  42  40 SW15      30.23F
DOUGLAS        FAIR      70  45  40 NW9       30.19F

$$
WYZ021-027>030-104>119-271800-
SOUTHERN WYOMING

CITY           SKY/WX    TMP DP  RH WIND       PRES   REMARKS
EVANSTON       FAIR      60  39  45 CALM      30.37S
FORT BRIDGER   FAIR      58  40  50 CALM      30.40S
ROCK SPRINGS   FAIR      57  45  64 CALM      30.36F
DIXON          FAIR      60  36  40 W3        30.38S
RAWLINS        FAIR      63  38  39 SW6       30.35F
SARATOGA       FAIR      63  34  34 E8        30.37F
LARAMIE        FAIR      62  36  37 CALM      30.34F
CHEYENNE       FAIR      74  25  16 N8        30.26S
TORRINGTON     FAIR      66  44  45 W6        30.15F
PINE BLUFFS    FAIR      73  32  21 NW7       30.22S

$$



USA.gov is the U.S. government's official web portal to all federal, state and local government web resources and services.